Voltar ao catálogo

STARLINK-35613

AtivoComunicaçõesVLEO
NORAD 66097·PAYLOAD·🇺🇸 United States

Lançado Oct 19, 2025 de Vandenberg Space Force Base

Loading…

Próximas Passagens (próximas 24 horas)

TLE

AtualizadoSource: CelesTrak SupGP

Época: Sep 14, 2026, 22:39 UTC

1 66097C 25236M   26257.94423611  .00040885  00000+0  12082-2 0  2574
2 66097  53.1594 303.6759 0001165  83.7101   8.9161 15.34365150    12

Acompanhe STARLINK-35613 em tempo real com AllMySat

Download on the App Store